WJA2513 TBPB-CYYZ

Flight info

Callsign WJA2513
Flight time N/A
Altitude 36000
Route FOF UA555 ILURI Y185 DONQU DCT LNHOM/M081F340 L452 OXANA/N0474F340 AR8 OHPEA/N0468F360 AR8 ECG DCT EDDYS DCT RIC DCT CSN/N0468F350 DCT PSB/N0470F360 DCT WOZEE LINNG3
Aircraft B738/M-SDE2E3FGHIRWXY/LB1

Departure

Time 2026-04-30 21:39
Airport Grantley Adams International Airport (TBPB)

Arrival

Time N/A
Airport Toronto Pearson International Airport (CYYZ)
Time Latitude Longitude Altitude Speed Heading
2026-04-30 21:00 13.07881 -59.48753 179 ft 0 kts 346°
2026-04-30 21:32 13.07883 -59.48755 179 ft 0 kts 307°
2026-04-30 21:32 13.07883 -59.48758 179 ft 0 kts 256°
2026-04-30 21:32 13.07872 -59.48758 179 ft 5 kts 163°
2026-04-30 21:32 13.07823 -59.48744 178 ft 7 kts 167°
2026-04-30 21:33 13.07764 -59.48756 177 ft 10 kts 213°
2026-04-30 21:33 13.07711 -59.48886 175 ft 10 kts 255°
2026-04-30 21:33 13.07692 -59.48958 176 ft 10 kts 256°
2026-04-30 21:34 13.07675 -59.49028 177 ft 8 kts 256°
2026-04-30 21:34 13.07633 -59.49197 178 ft 15 kts 255°
2026-04-30 21:34 13.07607 -59.49308 178 ft 16 kts 257°
2026-04-30 21:35 13.07579 -59.49424 177 ft 17 kts 255°
2026-04-30 21:35 13.07551 -59.49540 178 ft 16 kts 256°
2026-04-30 21:35 13.07522 -59.49654 178 ft 17 kts 255°
2026-04-30 21:35 13.07493 -59.49771 178 ft 16 kts 255°
2026-04-30 21:36 13.07463 -59.49886 179 ft 16 kts 256°
2026-04-30 21:36 13.07435 -59.50010 180 ft 20 kts 256°
2026-04-30 21:37 13.07320 -59.50471 185 ft 23 kts 256°
2026-04-30 21:37 13.07280 -59.50639 188 ft 24 kts 256°
2026-04-30 21:37 13.07175 -59.50730 187 ft 20 kts 171°
2026-04-30 21:37 13.07110 -59.50635 184 ft 16 kts 78°
2026-04-30 21:38 13.07159 -59.50447 181 ft 57 kts 77°
2026-04-30 21:38 13.07314 -59.49812 173 ft 124 kts 76°
2026-04-30 21:38 13.07571 -59.48764 173 ft 179 kts 79°
2026-04-30 21:38 13.07869 -59.47401 506 ft 202 kts 80°
2026-04-30 21:39 13.08133 -59.45987 1387 ft 201 kts 82°
2026-04-30 21:39 13.08304 -59.44696 2524 ft 179 kts 85°
2026-04-30 21:39 13.08541 -59.43483 3202 ft 174 kts 60°
2026-04-30 21:39 13.09492 -59.42703 3624 ft 187 kts 12°
2026-04-30 21:40 13.10812 -59.42897 3955 ft 208 kts 330°
2026-04-30 21:40 13.11922 -59.43930 4293 ft 228 kts 309°
2026-04-30 21:40 13.12792 -59.45356 4603 ft 239 kts 297°
2026-04-30 21:40 13.13425 -59.47016 4867 ft 260 kts 284°
2026-04-30 21:41 13.13598 -59.48894 5381 ft 272 kts 265°
2026-04-30 21:41 13.13424 -59.50847 5848 ft 285 kts 267°
2026-04-30 21:41 13.13426 -59.52902 6552 ft 288 kts 278°
2026-04-30 21:41 13.13939 -59.54880 7228 ft 290 kts 298°
2026-04-30 21:42 13.15130 -59.56557 7920 ft 290 kts 316°
2026-04-30 21:42 13.16620 -59.57976 8557 ft 294 kts 320°
2026-04-30 21:42 13.18168 -59.59363 9217 ft 297 kts 320°
2026-04-30 21:42 13.19706 -59.60796 9845 ft 301 kts 318°
2026-04-30 21:43 13.21245 -59.62294 10311 ft 311 kts 317°
2026-04-30 21:43 13.22842 -59.63888 10626 ft 326 kts 317°
2026-04-30 21:43 13.24507 -59.65565 10903 ft 342 kts 316°
2026-04-30 21:43 13.26264 -59.67337 11187 ft 356 kts 316°
2026-04-30 21:44 13.28074 -59.69162 11428 ft 371 kts 316°
2026-04-30 21:44 13.29953 -59.71054 11622 ft 386 kts 316°
2026-04-30 21:44 13.31903 -59.73018 11815 ft 400 kts 316°
2026-04-30 21:44 13.33927 -59.75057 11951 ft 415 kts 316°
2026-04-30 21:45 13.36032 -59.77177 12246 ft 424 kts 316°
2026-04-30 21:45 13.38152 -59.79314 12795 ft 425 kts 316°
2026-04-30 21:45 13.40261 -59.81441 13293 ft 428 kts 316°
2026-04-30 21:45 13.42413 -59.83613 13755 ft 432 kts 316°
2026-04-30 21:46 13.44571 -59.85793 14203 ft 436 kts 316°
2026-04-30 21:46 13.46728 -59.87970 14690 ft 438 kts 316°
2026-04-30 21:46 13.48920 -59.90183 15148 ft 441 kts 315°
2026-04-30 21:46 13.51106 -59.92390 15591 ft 443 kts 315°
2026-04-30 21:47 13.53327 -59.94635 16070 ft 445 kts 315°
2026-04-30 21:47 13.55506 -59.96836 16838 ft 439 kts 315°
2026-04-30 21:47 13.57685 -59.99038 17693 ft 430 kts 315°
2026-04-30 21:47 13.59799 -60.01176 18506 ft 423 kts 314°
2026-04-30 21:48 13.61863 -60.03264 19327 ft 415 kts 314°
2026-04-30 21:48 13.63908 -60.05331 20194 ft 406 kts 314°
2026-04-30 21:48 13.65892 -60.07337 20971 ft 399 kts 313°
2026-04-30 21:48 13.67860 -60.09329 21792 ft 389 kts 313°
2026-04-30 21:49 13.69762 -60.11252 22574 ft 380 kts 313°
2026-04-30 21:49 13.71615 -60.13126 23339 ft 371 kts 313°
2026-04-30 21:49 13.73460 -60.14992 23815 ft 371 kts 315°
2026-04-30 21:49 13.75534 -60.16626 24123 ft 377 kts 328°
2026-04-30 21:50 13.77897 -60.17791 24553 ft 378 kts 336°
2026-04-30 21:50 13.80398 -60.18765 24876 ft 382 kts 338°
2026-04-30 21:50 13.82906 -60.19667 25259 ft 382 kts 339°
2026-04-30 21:50 13.85455 -60.20568 25629 ft 384 kts 339°
2026-04-30 21:51 13.87982 -60.21456 25971 ft 385 kts 339°
2026-04-30 21:51 13.90538 -60.22355 26343 ft 385 kts 339°
2026-04-30 21:51 13.93076 -60.23244 26629 ft 388 kts 339°
2026-04-30 21:51 13.95649 -60.24142 26987 ft 388 kts 339°
2026-04-30 21:52 13.98208 -60.25029 27283 ft 390 kts 339°
2026-04-30 21:52 14.00794 -60.25993 27570 ft 390 kts 333°
2026-04-30 21:52 14.03176 -60.27330 27874 ft 388 kts 323°
2026-04-30 21:52 14.05259 -60.29102 28196 ft 386 kts 312°
2026-04-30 21:53 14.06959 -60.31241 28476 ft 385 kts 301°
2026-04-30 21:53 14.08216 -60.33668 28737 ft 384 kts 290°
2026-04-30 21:53 14.09641 -60.39036 28862 ft 397 kts 281°
2026-04-30 21:54 14.10689 -60.44660 28974 ft 411 kts 281°
2026-04-30 21:54 14.12306 -60.50451 29078 ft 427 kts 291°
2026-04-30 21:55 14.15098 -60.55979 29183 ft 442 kts 302°
2026-04-30 21:55 14.18973 -60.61042 29302 ft 457 kts 310°
2026-04-30 21:56 14.21164 -60.63470 29409 ft 463 kts 312°
2026-04-30 21:56 14.23429 -60.65851 29773 ft 462 kts 313°
2026-04-30 21:56 14.25705 -60.68185 30352 ft 456 kts 313°
2026-04-30 21:56 14.27930 -60.70442 30935 ft 450 kts 313°
2026-04-30 21:57 14.30181 -60.72721 31357 ft 448 kts 313°
2026-04-30 21:57 14.32417 -60.74986 31725 ft 446 kts 313°
2026-04-30 21:57 14.34613 -60.77216 32084 ft 444 kts 313°
2026-04-30 21:57 14.36798 -60.79440 32461 ft 441 kts 313°
2026-04-30 21:58 14.38999 -60.81684 32865 ft 438 kts 312°
2026-04-30 21:58 14.41145 -60.83873 33282 ft 435 kts 312°
2026-04-30 21:58 14.43298 -60.86071 33615 ft 434 kts 312°
2026-04-30 21:58 14.45431 -60.88251 33893 ft 433 kts 311°
2026-04-30 21:59 14.49757 -60.92681 33926 ft 435 kts 312°
2026-04-30 22:00 14.56169 -60.99249 33927 ft 434 kts 311°
2026-04-30 22:00 14.62526 -61.05963 33927 ft 434 kts 309°
2026-04-30 22:01 14.66543 -61.10598 33928 ft 432 kts 308°
2026-04-30 22:01 14.70563 -61.15269 33928 ft 432 kts 309°
2026-04-30 22:02 14.74580 -61.19902 33925 ft 431 kts 309°
2026-04-30 22:02 14.78621 -61.24541 33921 ft 433 kts 309°
2026-04-30 22:03 14.82637 -61.29141 33917 ft 432 kts 309°
2026-04-30 22:03 14.86681 -61.33777 33917 ft 432 kts 309°
2026-04-30 22:04 14.90723 -61.38411 33917 ft 433 kts 309°
2026-04-30 22:05 14.96755 -61.45324 33909 ft 431 kts 309°
2026-04-30 22:05 15.00796 -61.49961 33906 ft 433 kts 309°
2026-04-30 22:06 15.04820 -61.54583 33907 ft 433 kts 309°
2026-04-30 22:06 15.10900 -61.61564 33906 ft 433 kts 309°
2026-04-30 22:07 15.14916 -61.66182 33911 ft 431 kts 308°
2026-04-30 22:07 15.18949 -61.70824 33908 ft 432 kts 308°
2026-04-30 22:08 15.22960 -61.75444 33907 ft 432 kts 308°
2026-04-30 22:08 15.27005 -61.80099 33909 ft 432 kts 308°
2026-04-30 22:09 15.31036 -61.84743 33914 ft 432 kts 308°
2026-04-30 22:09 15.35050 -61.89376 33913 ft 432 kts 308°
2026-04-30 22:10 15.39076 -61.94023 33917 ft 431 kts 308°
2026-04-30 22:10 15.43076 -61.98644 33916 ft 430 kts 308°
2026-04-30 22:11 15.49087 -62.05593 33914 ft 430 kts 308°
2026-04-30 22:12 15.53083 -62.10216 33916 ft 430 kts 308°
2026-04-30 22:12 15.57077 -62.14840 33915 ft 432 kts 308°
2026-04-30 22:13 15.61081 -62.19473 33917 ft 430 kts 308°
2026-04-30 22:13 15.65100 -62.24128 33919 ft 431 kts 308°
2026-04-30 22:14 15.69118 -62.28784 33923 ft 431 kts 308°
2026-04-30 22:14 15.73099 -62.33409 33924 ft 431 kts 308°
2026-04-30 22:15 15.77106 -62.38072 33924 ft 432 kts 308°
2026-04-30 22:15 15.81122 -62.42739 33924 ft 431 kts 308°
2026-04-30 22:16 15.85095 -62.47356 33924 ft 431 kts 308°
2026-04-30 22:17 15.93103 -62.56693 33925 ft 432 kts 308°
2026-04-30 22:17 15.99122 -62.63713 33926 ft 433 kts 308°
2026-04-30 22:18 16.05141 -62.70730 33926 ft 433 kts 307°
2026-04-30 22:19 16.11156 -62.77761 33926 ft 433 kts 307°
2026-04-30 22:20 16.17148 -62.84766 33926 ft 429 kts 307°
2026-04-30 22:20 16.23116 -62.91748 33928 ft 430 kts 307°
2026-04-30 22:21 16.27091 -62.96407 33929 ft 430 kts 307°
2026-04-30 22:21 16.31055 -63.01075 33929 ft 430 kts 306°
2026-04-30 22:22 16.34865 -63.05901 33931 ft 429 kts 303°
2026-04-30 22:22 16.38582 -63.10793 33931 ft 428 kts 304°
2026-04-30 22:23 16.42286 -63.15644 33932 ft 428 kts 304°
2026-04-30 22:23 16.45994 -63.20470 33932 ft 428 kts 304°
2026-04-30 22:24 16.49715 -63.25295 33933 ft 426 kts 304°
2026-04-30 22:24 16.53445 -63.30138 33938 ft 426 kts 304°
2026-04-30 22:25 16.57150 -63.34939 33943 ft 425 kts 304°
2026-04-30 22:25 16.60854 -63.39737 33942 ft 424 kts 304°
2026-04-30 22:26 16.66385 -63.46920 33944 ft 420 kts 304°
2026-04-30 22:27 16.70068 -63.51714 33943 ft 422 kts 304°
2026-04-30 22:27 16.75617 -63.58926 33941 ft 421 kts 304°
2026-04-30 22:28 16.81109 -63.66068 33944 ft 423 kts 304°
2026-04-30 22:29 16.88426 -63.75628 33944 ft 419 kts 303°
2026-04-30 22:31 17.01174 -63.92283 33946 ft 417 kts 303°
2026-04-30 22:32 17.10230 -64.04162 33946 ft 417 kts 303°
2026-04-30 22:33 17.19328 -64.16059 33945 ft 416 kts 304°
2026-04-30 22:35 17.28342 -64.27916 33940 ft 415 kts 303°
2026-04-30 22:36 17.37371 -64.39789 33934 ft 415 kts 303°
2026-04-30 22:37 17.44564 -64.49275 33934 ft 414 kts 303°
2026-04-30 22:38 17.51748 -64.58766 33938 ft 414 kts 303°
2026-04-30 22:39 17.57142 -64.65879 33944 ft 414 kts 302°
2026-04-30 22:40 17.67872 -64.80078 33953 ft 414 kts 303°
2026-04-30 22:41 17.76825 -64.91952 33942 ft 413 kts 302°
2026-04-30 22:43 17.87495 -65.06139 33936 ft 411 kts 302°
2026-04-30 22:44 17.94618 -65.15625 33951 ft 410 kts 303°
2026-04-30 22:45 18.05257 -65.29816 33946 ft 413 kts 302°
2026-04-30 22:47 18.15923 -65.44074 33951 ft 413 kts 302°
2026-04-30 22:48 18.23079 -65.53648 33954 ft 414 kts 302°
2026-04-30 22:49 18.33765 -65.67989 33967 ft 415 kts 302°
2026-04-30 22:51 18.44498 -65.82409 33957 ft 417 kts 302°
2026-04-30 22:52 18.49856 -65.89628 33953 ft 417 kts 302°
2026-04-30 22:53 18.57009 -65.99281 33952 ft 416 kts 302°
2026-04-30 22:53 18.62336 -66.06498 33952 ft 418 kts 302°
2026-04-30 22:55 18.71285 -66.18590 33951 ft 418 kts 302°
2026-04-30 22:56 18.78443 -66.28280 33951 ft 419 kts 302°
2026-04-30 22:57 18.87409 -66.40447 33950 ft 419 kts 302°
2026-04-30 22:58 18.94974 -66.49853 33948 ft 426 kts 310°
2026-04-30 22:59 19.08569 -66.62153 33946 ft 427 kts 313°